Wind_Speed
4 5 5 5 6 6 6 6 7 7 8 8 8 8 9 9 9 8 7 7 6 6 5 5 4 4 4 4 5 5 5 5 5 4 4 4 3 3 3 3 2 2 2
6 6 6 7 8 8 8 8 9 9 9 10 10 10 10 10 10 9 9 8 7 7 6 6 5 5 5 5 5 5 5 6 5 5 4 4 3 3 3 3 2 2 2
7 8 8 9 9 9 10 10 10 10 11 11 11 11 11 11 11 11 10 9 9 8 7 7 6 6 6 6 6 6 6 6 6 6 5 4 4 4 3 3 3 3 3
9 9 10 10 11 11 11 11 11 11 11 12 12 12 12 12 11 11 11 11 10 9 9 8 7 7 7 7 7 7 7 7 7 6 6 5 5 4 4 4 4 4 4
11 11 11 11 12 12 13 13 12 12 12 13 13 13 13 12 12 12 12 11 11 11 10 10 9 9 9 8 8 9 8 8 8 7 6 6 6 5 5 5 5 5 5
12 13 13 13 13 14 14 14 14 14 13 13 13 13 14 13 13 13 13 13 12 12 12 12 11 11 11 11 10 10 10 10 9 9 8 8 7 7 6 6 7 7 7
14 14 14 14 15 15 15 15 15 15 15 14 14 14 14 14 14 14 13 13 13 13 13 13 13 13 13 13 13 12 12 12 11 10 10 9 9 9 8 8 8 8 8
15 16 16 16 16 16 16 16 17 16 16 16 16 15 15 15 14 14 14 14 14 15 15 15 15 15 15 15 15 14 14 14 13 13 12 12 11 11 10 10 10 10 9
16 17 16 17 17 17 18 18 18 18 18 17 17 17 16 16 15 15 15 16 16 16 17 17 17 16 17 17 17 16 16 16 15 14 13 12 13 13 13 12 11 11 11
17 17 17 17 18 18 18 18 19 19 19 18 18 18 17 17 16 16 16 17 17 17 18 19 18 18 18 18 18 18 18 18 17 16 15 14 15 15 14 14 13 13 12
18 18 18 19 19 19 19 20 20 20 20 20 19 19 18 18 18 17 18 18 18 19 19 20 20 19 19 20 20 20 20 20 19 18 17 17 17 16 16 16 16 15 14
20 20 20 20 20 20 20 21 21 21 21 21 20 20 19 19 19 19 19 19 20 20 20 20 21 21 21 21 21 21 21 21 21 20 19 19 19 18 18 17 17 17 16
21 21 21 21 21 21 21 21 22 23 22 22 22 21 20 20 20 20 20 20 21 21 21 21 22 22 22 22 22 22 23 22 22 22 21 21 21 20 20 19 18 18 18
22 22 22 22 22 22 22 23 24 24 23 21 21 22 22 21 22 22 21 22 21 21 21 22 22 23 23 22 23 24 24 23 23 24 22 22 22 22 21 20 20 20 20
23 23 23 24 24 25 25 25 25 24 23 23 23 23 23 23 23 23 23 24 23 22 22 22 23 22 23 24 24 23 24 25 26 25 24 24 24 23 22 22 21 21 21
23 24 24 25 26 26 26 25 25 24 23 23 23 23 24 24 25 25 25 24 24 24 23 23 24 24 25 25 25 25 24 24 25 26 26 25 26 25 24 23 23 23 23
23 24 24 25 26 26 26 25 26 25 24 24 24 23 24 26 26 26 25 25 25 24 24 24 25 25 26 25 25 25 25 25 25 26 26 26 26 26 26 25 25 24 24
24 24 26 26 26 26 26 26 26 26 25 25 26 25 25 26 27 27 26 26 25 25 26 26 26 26 26 26 26 26 27 26 26 27 27 27 27 27 27 26 25 24 24
25 25 26 26 26 27 27 28 27 27 27 27 27 26 26 27 28 28 27 27 27 27 27 28 28 28 28 28 27 27 27 26 26 27 27 27 27 27 27 26 26 25 25
25 25 25 26 26 27 27 27 27 28 28 28 28 28 28 28 29 30 29 28 28 28 28 29 29 28 29 29 28 28 27 27 27 26 27 27 27 28 28 27 27 27 26
26 26 27 27 27 27 28 27 28 28 29 29 29 30 29 29 30 30 30 30 30 30 30 30 30 30 30 30 30 29 28 29 28 28 28 28 28 28 28 28 27 27 27
26 27 26 27 28 28 29 29 29 29 29 29 29 30 30 31 31 31 31 31 32 31 30 30 31 32 31 31 31 30 30 30 29 28 27 27 27 28 28 28 27 28 28
28 28 28 29 29 30 30 30 31 31 31 31 30 31 31 31 31 31 31 31 31 31 31 31 32 33 32 32 31 31 31 30 29 29 28 27 27 27 28 28 29 28 29
29 29 29 30 30 30 31 31 32 32 32 32 31 30 30 30 30 31 31 31 32 32 31 32 32 33 33 33 32 32 31 30 30 30 29 29 28 28 28 28 28 28 28
29 28 29 29 30 31 31 31 32 32 32 31 31 31 31 30 31 31 30 31 31 32 32 32 32 32 33 33 32 32 32 32 31 31 30 30 30 29 28 29 28 29 29
28 28 29 29 30 31 32 32 32 32 32 32 32 31 31 31 30 30 31 31 31 31 31 31 31 32 33 33 32 32 32 33 32 32 32 31 30 29 28 28 29 29 29
Wind_Direction
279 276 276 280 282 281 284 290 294 293 288 284 281 280 279 280 280 280 282 284 285 289 295 299 303 304 309 315 317 319 322 323 328 332 329 329 328 330 330 319 312 305 293
283 282 280 282 284 283 283 287 289 290 289 286 283 281 279 279 280 279 278 280 282 283 286 290 293 294 297 304 307 307 309 312 314 317 316 313 313 317 320 317 299 295 289
287 286 284 285 286 286 284 285 287 288 287 286 284 282 279 278 277 277 277 277 278 279 279 282 286 289 290 294 296 296 296 298 302 302 300 299 299 300 303 303 296 286 286
290 290 288 287 287 287 286 286 286 287 286 285 285 283 281 280 277 276 277 276 276 277 278 278 280 281 282 283 283 285 287 289 291 292 292 292 291 294 293 293 295 288 280
291 291 289 288 288 288 288 288 288 287 287 287 287 285 283 281 279 277 276 277 277 276 277 277 276 276 276 276 276 277 279 282 284 284 284 287 289 288 289 288 287 285 277
290 291 289 288 288 289 290 288 287 287 287 287 288 288 285 283 281 280 279 279 279 279 278 278 277 277 276 275 275 274 274 276 278 280 281 280 282 284 283 284 285 281 272
290 290 290 287 287 288 290 288 285 285 285 287 288 289 288 285 283 281 280 280 280 280 279 279 279 278 278 276 274 272 273 273 274 275 275 275 276 278 278 279 281 279 271
288 290 290 289 287 287 287 287 283 284 285 286 286 285 286 285 281 280 280 280 280 279 278 277 278 278 277 276 275 274 273 273 273 274 274 275 276 274 274 276 277 276 267
287 288 289 288 288 288 287 287 283 283 284 284 283 282 284 284 282 280 281 281 280 279 277 277 277 276 275 274 274 275 273 273 273 272 272 272 270 271 273 275 274 272 266
289 288 287 288 287 287 286 287 285 283 282 282 282 282 282 282 281 280 280 280 280 279 277 276 276 275 275 274 274 274 273 273 272 272 271 269 268 270 272 272 271 269 267
289 287 286 287 287 287 286 287 286 286 284 282 282 282 282 280 279 279 278 279 278 278 278 276 275 275 274 273 272 273 273 272 273 273 271 270 269 271 273 273 270 268 265
290 287 286 286 285 286 286 285 286 287 285 283 282 282 283 281 280 279 278 279 279 278 278 277 277 275 273 273 272 272 273 272 271 271 273 272 271 271 273 273 270 268 267
289 288 288 286 286 286 286 285 288 288 287 284 283 283 282 282 282 281 280 281 281 280 279 277 278 276 274 272 271 273 273 271 270 270 271 271 271 271 271 273 271 268 267
287 287 286 287 287 287 288 289 290 289 286 286 285 286 285 283 283 283 282 282 282 281 280 281 280 278 277 276 275 272 271 271 269 268 267 267 269 270 270 272 271 269 266
286 286 287 287 287 288 288 288 290 290 286 288 287 286 285 285 284 284 284 283 282 282 282 281 280 280 279 276 275 274 271 270 269 267 267 267 268 269 269 269 270 268 268
286 285 287 287 288 289 288 288 288 289 287 287 288 285 285 284 283 283 285 284 283 283 283 282 280 281 282 280 277 275 273 272 270 267 266 267 267 269 268 268 269 270 269
285 285 288 287 287 289 289 288 288 287 286 287 287 285 285 285 284 283 283 283 283 282 283 282 282 282 282 283 281 278 275 272 271 268 268 267 267 268 268 268 268 269 268
284 284 286 287 287 288 288 287 285 285 285 287 285 283 284 286 284 283 281 281 282 283 283 284 284 284 284 284 283 281 279 273 269 270 269 268 267 266 266 266 265 267 267
284 284 285 287 286 286 286 284 282 285 286 286 285 283 283 284 284 282 281 281 281 282 283 284 284 283 282 282 281 280 278 274 271 270 269 269 268 266 264 263 263 266 266
285 285 284 285 285 285 286 284 282 283 284 286 285 283 282 282 282 282 281 279 279 280 282 284 284 284 282 281 281 281 280 276 272 270 270 269 268 267 264 262 262 263 264
286 286 284 284 285 285 286 286 287 285 284 287 287 285 284 282 281 281 280 278 277 279 281 283 283 283 282 282 281 281 279 277 274 271 269 269 267 266 266 263 263 264 264
285 285 284 284 285 285 285 287 288 288 287 289 289 289 286 284 281 278 279 278 277 278 280 282 281 281 281 281 279 278 277 275 273 271 270 270 267 265 264 264 263 265 265
284 284 284 284 285 285 286 286 286 287 288 288 288 287 287 284 281 278 278 279 279 280 280 281 281 279 279 280 279 278 277 274 272 270 270 270 268 265 265 264 265 265 265
284 284 284 285 285 284 285 286 286 286 287 288 288 287 286 285 282 281 280 280 280 280 280 281 281 280 279 279 278 276 275 274 272 271 270 269 267 264 264 266 267 266 265
285 284 285 286 285 287 286 286 288 288 288 288 288 286 285 284 282 281 281 281 280 280 281 281 282 281 280 280 278 275 273 273 271 270 269 267 266 265 264 264 265 266 266
285 285 286 286 287 288 288 287 287 288 288 288 287 285 284 284 283 282 281 281 281 282 282 282 283 282 280 279 278 276 274 272 270 269 268 266 265 265 265 265 265 266 267
Height
5907 5906 5907 5907 5907 5907 5906 5906 5906 5905 5905 5904 5904 5903 5903 5902 5901 5900 5899 5899 5898 5898 5897 5896 5896 5895 5894 5894 5893 5893 5892 5892 5891 5890 5890 5889 5889 5889 5888 5888 5888 5888 5888
5907 5906 5906 5906 5906 5905 5905 5905 5905 5904 5904 5903 5903 5902 5901 5901 5900 5899 5898 5898 5897 5897 5896 5896 5895 5894 5894 5893 5893 5892 5891 5891 5891 5890 5889 5889 5888 5888 5888 5888 5888 5888 5888
5906 5905 5905 5905 5904 5904 5904 5904 5903 5903 5902 5902 5901 5900 5900 5899 5898 5898 5897 5897 5896 5896 5895 5895 5894 5894 5893 5893 5892 5891 5891 5890 5890 5889 5888 5888 5888 5887 5887 5887 5887 5887 5887
5905 5904 5904 5904 5903 5903 5902 5902 5902 5901 5901 5900 5900 5899 5898 5897 5897 5896 5896 5895 5895 5894 5894 5893 5893 5893 5892 5892 5891 5890 5890 5889 5888 5888 5888 5887 5887 5887 5886 5886 5886 5886 5886
5904 5903 5903 5903 5902 5902 5901 5900 5900 5900 5899 5898 5898 5897 5896 5896 5895 5895 5894 5894 5893 5893 5893 5892 5891 5891 5891 5890 5890 5889 5889 5888 5887 5887 5887 5886 5886 5886 5885 5885 5885 5885 5885
5903 5902 5901 5901 5900 5900 5899 5898 5898 5898 5897 5896 5896 5895 5894 5894 5893 5893 5892 5892 5891 5891 5891 5890 5890 5890 5889 5889 5888 5888 5887 5886 5886 5886 5885 5885 5885 5885 5884 5884 5884 5884 5884
5901 5900 5900 5899 5898 5898 5897 5896 5896 5895 5895 5894 5894 5893 5892 5892 5891 5891 5890 5890 5889 5889 5889 5888 5888 5888 5887 5887 5886 5886 5885 5885 5884 5884 5883 5883 5883 5883 5883 5883 5883 5883 5882
5899 5898 5897 5896 5896 5895 5894 5894 5893 5893 5892 5891 5891 5890 5890 5889 5888 5888 5887 5887 5886 5886 5886 5886 5885 5885 5885 5884 5884 5883 5883 5882 5882 5882 5881 5881 5881 5882 5882 5881 5881 5881 5881
5896 5895 5895 5894 5893 5892 5891 5891 5890 5890 5889 5888 5888 5887 5887 5886 5886 5885 5884 5884 5883 5883 5883 5882 5882 5882 5882 5881 5881 5881 5880 5880 5879 5879 5879 5879 5879 5879 5880 5879 5879 5879 5879
5893 5893 5892 5891 5890 5889 5889 5888 5887 5887 5886 5885 5885 5884 5883 5883 5882 5882 5881 5881 5880 5880 5879 5879 5879 5878 5878 5878 5878 5878 5877 5876 5876 5876 5876 5876 5876 5877 5877 5877 5877 5877 5878
5890 5889 5889 5888 5887 5887 5886 5885 5884 5883 5883 5882 5881 5881 5880 5880 5879 5879 5878 5878 5877 5876 5876 5875 5875 5875 5874 5874 5874 5874 5874 5873 5873 5873 5873 5873 5873 5874 5874 5874 5874 5875 5875
5886 5886 5885 5885 5884 5883 5882 5881 5881 5880 5879 5879 5878 5877 5877 5876 5876 5875 5875 5874 5873 5873 5872 5871 5871 5871 5871 5870 5870 5870 5870 5869 5869 5869 5869 5869 5869 5870 5870 5871 5871 5871 5872
5883 5882 5881 5881 5880 5880 5879 5877 5877 5876 5875 5874 5874 5873 5872 5872 5872 5871 5871 5870 5869 5869 5868 5867 5867 5866 5866 5865 5865 5866 5865 5865 5865 5866 5866 5865 5865 5866 5867 5867 5867 5868 5868
5879 5879 5878 5877 5876 5876 5875 5873 5873 5872 5871 5870 5870 5869 5868 5868 5867 5867 5866 5866 5865 5864 5863 5863 5862 5861 5861 5860 5860 5860 5861 5861 5860 5861 5861 5861 5862 5862 5863 5863 5863 5864 5864
5876 5875 5874 5873 5872 5871 5870 5869 5868 5867 5866 5866 5865 5864 5864 5864 5863 5862 5862 5861 5860 5859 5859 5858 5858 5857 5857 5856 5855 5855 5854 5855 5856 5855 5856 5857 5857 5857 5858 5858 5859 5859 5860
5871 5870 5869 5869 5868 5867 5866 5864 5864 5862 5861 5861 5860 5859 5859 5859 5858 5857 5857 5856 5855 5854 5854 5853 5853 5853 5852 5851 5850 5849 5849 5849 5850 5850 5851 5851 5851 5852 5852 5853 5854 5854 5855
5866 5865 5864 5864 5863 5862 5861 5860 5859 5857 5856 5856 5855 5855 5854 5853 5852 5851 5851 5850 5850 5849 5848 5848 5847 5847 5846 5845 5844 5844 5843 5844 5844 5844 5845 5845 5846 5846 5847 5848 5848 5849 5849
5861 5859 5859 5859 5858 5857 5856 5855 5854 5852 5851 5851 5850 5850 5848 5847 5846 5845 5845 5844 5844 5843 5843 5842 5842 5841 5840 5839 5839 5838 5837 5837 5837 5838 5839 5839 5840 5841 5841 5842 5843 5844 5844
5856 5855 5855 5854 5853 5852 5851 5850 5849 5848 5847 5846 5845 5844 5842 5841 5840 5839 5839 5838 5838 5837 5837 5836 5835 5835 5834 5833 5832 5832 5831 5831 5832 5832 5833 5833 5833 5834 5835 5836 5837 5838 5839
5852 5851 5850 5849 5848 5847 5846 5844 5843 5843 5841 5840 5839 5838 5836 5835 5834 5833 5833 5832 5831 5831 5830 5829 5828 5827 5827 5826 5825 5825 5825 5825 5825 5826 5826 5826 5827 5827 5828 5829 5830 5831 5832
5846 5845 5845 5843 5842 5841 5840 5839 5838 5837 5836 5835 5834 5832 5830 5829 5828 5827 5826 5825 5824 5824 5823 5822 5821 5820 5820 5819 5818 5818 5818 5818 5818 5819 5819 5820 5820 5821 5822 5822 5822 5824 5826
5840 5840 5839 5838 5837 5836 5835 5834 5833 5832 5830 5829 5827 5826 5824 5822 5821 5820 5819 5818 5817 5816 5815 5815 5814 5813 5812 5811 5811 5810 5811 5812 5811 5811 5812 5813 5813 5814 5815 5816 5816 5818 5819
5835 5834 5834 5833 5831 5830 5829 5828 5826 5825 5823 5822 5820 5819 5817 5815 5814 5812 5811 5810 5809 5808 5808 5807 5806 5805 5805 5804 5803 5803 5803 5803 5804 5805 5805 5806 5806 5807 5808 5809 5810 5810 5812
5830 5829 5828 5826 5825 5823 5822 5821 5819 5818 5816 5814 5813 5811 5810 5808 5807 5805 5804 5803 5802 5801 5800 5799 5798 5797 5796 5796 5795 5794 5795 5795 5796 5797 5798 5798 5799 5800 5801 5802 5802 5803 5804
5824 5823 5821 5820 5819 5818 5816 5814 5812 5810 5809 5807 5806 5804 5802 5801 5800 5798 5797 5796 5795 5794 5792 5791 5790 5789 5788 5787 5787 5787 5787 5787 5787 5788 5790 5791 5791 5793 5794 5795 5795 5796 5797
5818 5817 5816 5814 5812 5811 5809 5807 5805 5803 5801 5800 5798 5797 5795 5793 5792 5791 5790 5789 5787 5786 5785 5783 5782 5781 5780 5779 5779 5778 5778 5779 5779 5780 5781 5783 5783 5785 5786 5787 5788 5788 5789